Lewiston, ID

11:00 PM PST on February 24, 2017 (GMT -0800)
Lewiston-Nez Perce County

Weather History for KLWS - June, 2013

Change the Weather History Date:

Tuesday, June 4, 2013

  Actual Average Record
Temperature  
Mean Temperature 65 °F 63 °F  
Max Temperature 82 °F 75 °F 98 °F (1938)
Min Temperature 48 °F 51 °F 38 °F (1962)
Degree Days  
Heating Degree Days 0 4  
Month to date heating degree days 9 16  
Since 1 June heating degree days 9 16  
Since 1 July heating degree days 4602 5113  
Cooling Degree Days 0 2  
Month to date cooling degree days 0 8  
Year to date cooling degree days 57 40  
Since 1 June cooling degree days 0 8  
Growing Degree Days 15 (Base 50)    
Moisture  
Dew Point 42 °F    
Average Humidity 48    
Maximum Humidity 74    
Minimum Humidity 21    
Precipitation  
Precipitation 0.00 in 0.05 in 0.67 in (2006)
Month to date precipitation 0.02 0.21  
Year to date precipitation 3.89 6.15  
Snow  
Snow 0.00 in 0.00 in 0.00 in (1995)
Month to date snowfall 0.0 0.0  
Since 1 June snowfall 0.0 0.0  
Since 1 July snowfall 2.6 10.5  
Snow Depth 0.00 in    
Sea Level Pressure  
Sea Level Pressure 30.05 in    
Wind  
Wind Speed 4 mph (NNE)    
Max Wind Speed 12 mph    
Max Gust Speed 21 mph    
Visibility 10 miles    
Events      
T = Trace of Precipitation, MM = Missing Value Source: NWS Daily Summary

Daily Weather History Graph

Daily Weather History Graph

Search for Another Location

Airport or City:

Trip Planner

Search our weather history database for the weather conditions in past years. The results will help you decide how hot, cold, wet, or windy it might be!

Date:

Astronomy

Jun. 04, 2013 Rise Set
Actual Time 4:57 AM PDT 8:35 PM PDT
Civil Twilight 4:19 AM PDT 9:13 PM PDT
Nautical Twilight 3:28 AM PDT 10:05 PM PDT
Astronomical Twilight 2:19 AM PDT 11:14 PM PDT
Moon 2:41 AM PDT (6/4) 4:59 PM PDT (6/4)
Length of Visible Light 16h 54m
Length of Day
15h 38m
Waning Crescent, 13% of the Moon is Illuminated
Jun 4
Waning Crescent
Jun 8
New
Jun 16
First Quarter
Jun 23
Full
Jun 29
Last Quarter

Hourly Weather History & Observations

Time (PDT) Temp. Dew Point Humidity Pressure Visibility Wind Dir Wind Speed Gust Speed Precip Events Conditions
12:56 AM 55.9 °F 42.1 °F 60% 30.01 in 10.0 mi SW 4.6 mph - N/A   Clear
1:56 AM 54.0 °F 42.1 °F 64% 30.02 in 10.0 mi Calm Calm - N/A   Clear
2:56 AM 53.1 °F 42.1 °F 66% 30.03 in 10.0 mi SE 3.5 mph - N/A   Clear
3:56 AM 51.1 °F 41.0 °F 68% 30.04 in 10.0 mi Calm Calm - N/A   Clear
4:56 AM 51.1 °F 41.0 °F 68% 30.06 in 10.0 mi Calm Calm - N/A   Clear
5:56 AM 50.0 °F 42.1 °F 74% 30.08 in 10.0 mi Calm Calm - N/A   Clear
6:56 AM 55.9 °F 45.0 °F 67% 30.08 in 10.0 mi Variable 4.6 mph - N/A   Clear
7:56 AM 57.9 °F 46.0 °F 65% 30.10 in 10.0 mi East 4.6 mph - N/A   Clear
8:56 AM 62.1 °F 46.0 °F 56% 30.10 in 10.0 mi SE 3.5 mph - N/A   Clear
9:56 AM 66.9 °F 46.0 °F 47% 30.10 in 10.0 mi NNE 4.6 mph - N/A   Clear
10:56 AM 71.1 °F 44.1 °F 38% 30.09 in 10.0 mi Variable 3.5 mph - N/A   Clear
11:56 AM 73.9 °F 41.0 °F 30% 30.09 in 10.0 mi Variable 4.6 mph - N/A   Clear
12:56 PM 77.0 °F 37.9 °F 24% 30.07 in 10.0 mi NNW 8.1 mph - N/A   Clear
1:56 PM 80.1 °F 39.9 °F 24% 30.06 in 10.0 mi NE 8.1 mph - N/A   Clear
2:56 PM 79.0 °F 39.9 °F 25% 30.05 in 10.0 mi NNW 6.9 mph - N/A   Clear
3:56 PM 80.1 °F 39.9 °F 24% 30.03 in 10.0 mi NNE 6.9 mph - N/A   Clear
4:56 PM 81.0 °F 37.9 °F 21% 30.02 in 10.0 mi NW 8.1 mph - N/A   Clear
5:56 PM 81.0 °F 37.9 °F 21% 30.01 in 10.0 mi North 9.2 mph - N/A   Clear
6:56 PM 80.1 °F 37.9 °F 22% 30.01 in 10.0 mi NW 6.9 mph - N/A   Clear
7:56 PM 75.9 °F 37.9 °F 25% 30.01 in 10.0 mi North 4.6 mph - N/A   Clear
8:56 PM 73.9 °F 42.1 °F 32% 30.01 in 10.0 mi Calm Calm - N/A   Clear
9:56 PM 68.0 °F 42.1 °F 39% 30.02 in 10.0 mi SSE 3.5 mph - N/A   Clear
10:56 PM 64.9 °F 43.0 °F 45% 30.02 in 10.0 mi SSW 5.8 mph - N/A   Clear
11:56 PM 63.0 °F 43.0 °F 48% 30.02 in 10.0 mi Calm Calm - N/A   Clear